"Pseudo-MPEC" for P11gRcL

Created 2021 Jun 15 0:07:24 UT using Find_Orb

Click here for an explanation of pseudo-MPECs

 
 Astrometry: 
     P11gRcL  C2021 06 08Fti$Z.X!;\ui(3marBRbyAC'/v[cB/Astrometry-j;XE0o@yQSGF51
     P11gRcL  C2021 06 08m:?iG[BBXIC_2?uu*(NxOsbredacted;x9bOF/w;(fc/^A2'[x!VF51
     P11gRcL  C2021 06 08sq`Vg5.bpnXDAu=I;3f$r.jSih.clicky%_rmhereNc7v2m/0o*+F51
     P11gRcL ^C2021 06 09.58416420 01 05.085-39 32 07.89   ~69Eb 21.38GVNEOCP568
     P11gRcL ^C2021 06 09.58514420 01 04.924-39 32 09.15   ~69Eb 21.54GVNEOCP568
     P11gRcL ^C2021 06 09.58612520 01 04.756-39 32 10.16   ~69Eb 21.45GVNEOCP568
     P11gRcL ^C2021 06 11.59170819 55 22.147-40 11 20.93   ~6BFq 21.16GVNEOCP568
     P11gRcL ^C2021 06 11.59268519 55 21.964-40 11 22.11   ~6BFq 21.12GVNEOCP568
     P11gRcL ^C2021 06 11.59366319 55 21.781-40 11 23.16   ~6BFq 21.17GVNEOCP568
     P11gRcL KC2021 06 11g.Ft%L\o%84$Tnal`$)66PEF*+g8,Af1n#ZN(rbaLV%,qqlvU)f_474
     P11gRcL KC2021 06 11N3_2JJHk5pnpDvh,]o=!hhndww+\%rB86H;J-P@!Ri%i8B,90t-O474
     P11gRcL KC2021 06 14q^4Sd,OvRr7Bw[vo3et#Wpcq']$0.=forD;'*k]wUrS5n*qj*0ta474
     P11gRcL KC2021 06 14gkJ^La=6IZ4e;0xDa-:C0E:UExes:Rkj.Z)BnH]f2[esh[4eF3%!474
     P11gRcL KC2021 06 14XXf+rrJ6cnpKOmwPd51O.T0v?V/yexplanation1gWwM)Jw?3kj_474

Station data:
(474) Mount John Observatory, Lake Tekapo  (S43.987388 E170.464960)  New
   Zealand.  Observers A. C. Gilmore, P. M. Kilmartin. Measurer P. M.
   Kilmartin. 1.0-m f/7.7 reflector + CCD.
(568) Mauna Kea  (N19.826116 W155.472200)  US/Hawaii.
(F51) Pan-STARRS 1, Haleakala  (N20.707235 W156.255910)  US/Hawaii.
   Observers N. Primak, A. Schultz, S. Watters, J. Thiel, T. Goggia. Measurer
   PS1 Science Consortium. 1.8-m Ritchey-Chrétien + CCD.

Orbital elements:  P11gRcL
   Perihelion 2021 Oct 31.459955 +/- 0.215791 TT = 11:02:20 (JD 2459518.959955)
Epoch 2021 Jun 14.0 TT = JDT 2459379.5   Earth MOID: 0.0667   Ve: 0.0276
M 200.41886529 +/- 0.2344341        Me: 0.0307                AutoNEOCP
n   1.14427926 +/- 0.000133033      Peri.  103.96853 +/- 0.0757134
a   0.90527674 +/- 7.01621e-5       Node   341.63667 +/- 0.1017125
e   0.6263600 +/- 0.00222539        Incl.    7.00973 +/- 0.0213796
P   0.86/314.60d           H 21.1   G  0.15   U  6.9  
q 0.33824755 +/- 0.00202674    Q 1.47230593 +/- 0.00196537
From 14 observations 2021 June 8-14; mean residual 0".19
Residuals in arcseconds: 
210608 F51  .01-  .17-    210609 568  .02+  .10+    210611 474  .29-  .36-    
210608 F51  .15+  .19+    210611 568  .08+  .10+    210614 474  .14+  .33-    
210608 F51  .20-  .08-    210611 568  .10+  .05+    210614 474  .27+  .40+    
210609 568  .00   .11+    210611 568  .13+  .13+    210614 474  .42-  .01-    
210609 568  .05+  .02-    210611 474  .05+  .04-    

Ephemerides (geocentric):
Date (UTC) HH   RA              Dec         delta   r     elong  mag " sig PA
---- -- -- --  -------------   -----------  ------ ------ -----  --- ---- ---
2021 06 15 00  19 44 03.625   -41 17 33.81  .49500 1.4571 147.3 21.4 .220 145
2021 06 15 01  19 43 54.542   -41 18 21.94  .49474 1.4570 147.4 21.4 .228 146
2021 06 15 02  19 43 45.439   -41 19 10.05  .49449 1.4570 147.4 21.4 .237 146
2021 06 15 03  19 43 36.318   -41 19 58.14  .49423 1.4569 147.5 21.4 .246 146
2021 06 15 04  19 43 27.177   -41 20 46.21  .49397 1.4568 147.5 21.4 .255 147
2021 06 15 05  19 43 18.017   -41 21 34.24  .49371 1.4568 147.6 21.4 .264 147
2021 06 15 06  19 43 08.838   -41 22 22.26  .49345 1.4567 147.6 21.4 .273 147
2021 06 15 07  19 42 59.639   -41 23 10.24  .49320 1.4566 147.7 21.4 .282 148
2021 06 15 08  19 42 50.421   -41 23 58.20  .49294 1.4565 147.7 21.4 .291 148
2021 06 15 09  19 42 41.184   -41 24 46.14  .49268 1.4565 147.8 21.4 .301 148
2021 06 15 10  19 42 31.928   -41 25 34.05  .49243 1.4564 147.8 21.4 .310 149
2021 06 15 11  19 42 22.652   -41 26 21.93  .49217 1.4563 147.9 21.4 .320 149
2021 06 15 12  19 42 13.357   -41 27 09.78  .49192 1.4563 147.9 21.4 .329 149
2021 06 15 13  19 42 04.042   -41 27 57.60  .49166 1.4562 148.0 21.4 .339 150
2021 06 15 14  19 41 54.708   -41 28 45.40  .49141 1.4561 148.0 21.4 .349 150
2021 06 15 15  19 41 45.355   -41 29 33.17  .49115 1.4561 148.1 21.4 .359 150
2021 06 15 16  19 41 35.983   -41 30 20.90  .49090 1.4560 148.1 21.4 .370 150
2021 06 15 17  19 41 26.591   -41 31 08.61  .49065 1.4559 148.2 21.4 .380 151
2021 06 15 18  19 41 17.180   -41 31 56.29  .49039 1.4559 148.2 21.4 .390 151
2021 06 15 19  19 41 07.749   -41 32 43.94  .49014 1.4558 148.3 21.4 .401 151
2021 06 15 20  19 40 58.299   -41 33 31.56  .48989 1.4557 148.3 21.4 .411 151
2021 06 15 21  19 40 48.829   -41 34 19.14  .48964 1.4556 148.4 21.4 .422 152
2021 06 15 22  19 40 39.341   -41 35 06.70  .48939 1.4556 148.4 21.4 .433 152
2021 06 15 23  19 40 29.832   -41 35 54.22  .48913 1.4555 148.5 21.4 .444 152
2021 06 16 00  19 40 20.305   -41 36 41.72  .48888 1.4554 148.5 21.4 .455 152
2021 06 16 01  19 40 10.757   -41 37 29.18  .48863 1.4554 148.6 21.4 .467 153
2021 06 16 02  19 40 01.191   -41 38 16.60  .48838 1.4553 148.6 21.4 .478 153
2021 06 16 03  19 39 51.605   -41 39 04.00  .48813 1.4552 148.7 21.4 .489 153
2021 06 16 04  19 39 41.999   -41 39 51.36  .48788 1.4551 148.7 21.4 .501 153
2021 06 16 05  19 39 32.375   -41 40 38.68  .48763 1.4551 148.8 21.4 .513 154
2021 06 16 06  19 39 22.730   -41 41 25.97  .48738 1.4550 148.8 21.4 .524 154
2021 06 16 07  19 39 13.066   -41 42 13.23  .48714 1.4549 148.9 21.4 .536 154
2021 06 16 08  19 39 03.383   -41 43 00.45  .48689 1.4549 148.9 21.4 .548 154
2021 06 16 09  19 38 53.680   -41 43 47.64  .48664 1.4548 149.0 21.3 .561 155
2021 06 16 10  19 38 43.958   -41 44 34.78  .48639 1.4547 149.1 21.3 .573 155
2021 06 16 11  19 38 34.216   -41 45 21.90  .48615 1.4546 149.1 21.3 .585 155
2021 06 16 12  19 38 24.455   -41 46 08.97  .48590 1.4546 149.2 21.3 .598 155
2021 06 16 13  19 38 14.675   -41 46 56.01  .48565 1.4545 149.2 21.3 .610 155
2021 06 16 14  19 38 04.874   -41 47 43.02  .48541 1.4544 149.3 21.3 .623 156
2021 06 16 15  19 37 55.055   -41 48 29.98  .48516 1.4543 149.3 21.3 .636 156
2021 06 16 16  19 37 45.216   -41 49 16.91  .48492 1.4543 149.4 21.3 .649 156
2021 06 16 17  19 37 35.357   -41 50 03.79  .48467 1.4542 149.4 21.3 .662 156
2021 06 16 18  19 37 25.479   -41 50 50.64  .48443 1.4541 149.5 21.3 .676 157
2021 06 16 19  19 37 15.581   -41 51 37.45  .48418 1.4541 149.5 21.3 .689 157
2021 06 16 20  19 37 05.664   -41 52 24.22  .48394 1.4540 149.6 21.3 .702 157
2021 06 16 21  19 36 55.727   -41 53 10.95  .48370 1.4539 149.6 21.3 .716 157
2021 06 16 22  19 36 45.770   -41 53 57.63  .48345 1.4538 149.7 21.3 .730 157
2021 06 16 23  19 36 35.795   -41 54 44.28  .48321 1.4538 149.7 21.3 .744 158